Regional Weather Roundup
Issued by NWS

Home | Current Version | Previous Version | Graphics & Text | Print | Product List | Glossary On
Versions: 1 2 3 4 5 6 7 8 9 10 11 12 13 14 15 16 17 18 19 20 21 22 23 24 25 26 27 28 29 30 31 32 33 34 35 36 37 38 39 40 41 42 43 44 45 46 47 48 49 50
000
ASUS45 KABQ 171010
RWRNM
WEATHER ROUNDUP FOR NEW MEXICO
NATIONAL WEATHER SERVICE ALBUQUERQUE NM
400 AM MDT WED SEP 17 2014

NOTE: "FAIR" MEANS FEW OR NO CLOUDS BELOW 12,000 FEET AGL WITH NO
       SIGNIFICANT WEATHER OR OBSTRUCTIONS TO VISION.

      THIS PRODUCT IS RELEASED AS TWO VERSIONS.  ONE VERSION NEAR
      THE TOP OF THE HOUR CONTAINING PRELIMINARY DATA FROM ALBUQUERQUE
      AND OTHER STATIONS.  A FINAL VERSION WITH ADDITIONAL DATA IS
      ISSUED ABOUT 10 MINUTES AFTER THE HOUR.

NMZ501-503-504-510>518-171100-
NORTHWEST PLATEAU/NORTHCENTRAL MOUNTAINS

CITY           SKY/WX    TMP DP  RH WIND       PRES   REMARKS
FARMINGTON     CLEAR     65  53  65 E7        30.14F
LOS ALAMOS     CLOUDY    54  54 100 NW5       30.27F
SANTA FE       CLOUDY    58  51  78 CALM      30.22F
ANGEL FIRE     FAIR      40  37  89 CALM      30.36F

$$
NMZ402-403-502-505>509-171100-
WESTCENTRAL MOUNTAINS/SOUTHWEST MOUNTAINS

CITY           SKY/WX    TMP DP  RH WIND       PRES   REMARKS
GALLUP         CLOUDY    57  50  77 CALM      30.21F
GRANTS         CLOUDY    57  54  88 S5        30.24F
SILVER CITY    CLOUDY    63  61  94 NE8       30.16F

$$
NMZ407-409-411-412-171100-
SOUTHERN DESERTS

CITY           SKY/WX    TMP DP  RH WIND       PRES   REMARKS
LORDSBURG      CLOUDY    68  61  77 E7        30.06S
DEMING         CLOUDY    65  63  93 NE13      30.09F
LAS CRUCES     CLOUDY    65  64  94 E10       30.12S THUNDER
HOLLOMAN AFB   LGT RAIN  66  66 100 NW2       30.07F
ALAMOGORDO     CLOUDY    64  64 100 CALM      30.10F
T OR C         HVY RAIN  62  62 100 N9        30.12F FOG

$$
NMZ519>523-171100-
CENTRAL VALLEYS/CENTRAL HIGHLANDS

CITY           SKY/WX    TMP DP  RH WIND       PRES   REMARKS
ALBUQUERQUE    CLOUDY    63  54  72 CALM      30.18F
DOUBLE EAGLE   CLOUDY    58  55  89 CALM      30.20F
MORIARTY ARPT  CLOUDY    55  53  91 CALM      30.23F
CLINES CORNERS CLOUDY    55  51  86 NW8       30.24F
BELEN          DRIZZLE   59  58  97 CALM      30.17F
SOCORRO        CLOUDY    63  61  94 N3        30.15S

$$
NMZ524>526-539-540-171100-
SOUTHCENTRAL MOUNTAINS

CITY           SKY/WX    TMP DP  RH WIND       PRES   REMARKS
RUIDOSO        NOT AVBL

$$
NMZ527>531-171100-
NORTHEAST HIGHLANDS/NORTHEAST PLAINS

CITY           SKY/WX    TMP DP  RH WIND       PRES   REMARKS
LAS VEGAS      MOCLDY    51  47  86 NE3       30.23F
RATON          CLOUDY    54  51  90 NE3       30.18F
CLAYTON        CLOUDY    60  56  86 W8        30.09F

$$
NMZ532>537-171100-
EASTCENTRAL PLAINS

CITY           SKY/WX    TMP DP  RH WIND       PRES   REMARKS
TUCUMCARI      MOCLDY    63  58  83 S3        30.09F
CANNON AFB     MOCLDY    64  59  82 W6        30.12F
CLOVIS AIRPORT   N/A     63  59  88 W6        30.14F

$$
NMZ028-029-538-171100-
SOUTHEAST PLAINS

CITY           SKY/WX    TMP DP  RH WIND       PRES   REMARKS
ROSWELL        CLOUDY    66  65  96 CALM      30.09F FOG
CARLSBAD       CLOUDY    68  32  26 NW5       30.06F
HOBBS          CLOUDY    64  64 100 NE3       30.10F FOG


$$


USA.gov is the U.S. government's official web portal to all federal, state and local government web resources and services.